Tracking 29892 objects as of 21-Nov-2024
HD Live streaming from Space Station
objects crossing your sky now

ONEWEB-0431

Track ONEWEB-0431 now!
10-day predictions
ONEWEB-0431 is classified as:


NORAD ID: 51630
Int'l Code: 2022-012J
Perigee: 1,228.0 km
Apogee: 1,229.7 km
Inclination: 87.9 °
Period: 109.9 minutes
Semi major axis: 7599 km
RCS: Unknown
Launch date: February 10, 2022
Source: United Kingdom (UK)
Launch site: FRENCH GUIANA (FRGUI)
Your satellite tracking list
Your tracking list is empty




NASA's NSSDC Master Catalog

Two Line Element Set (TLE):
1 51630U 22012J   24325.91828707 -.00000251  00000-0 -75395-3 0  9992
2 51630  87.8880 150.4197 0001122  62.7809 297.3432 13.10368333134268
Source of the keplerian elements: AFSPC